Regional Weather Roundup
Issued by NWS Goodland, KS

Home | Current Version | Previous Version | Graphics & Text | Print | Product List | Glossary On
Versions: 1 2 3 4 5 6 7 8 9 10 11 12 13 14 15 16 17 18 19 20 21 22 23 24 25 26 27 28 29 30 31 32 33 34 35 36 37 38 39 40 41 42 43 44 45 46 47 48 49 50
490
ASUS43 KGLD 152208
RWRGLD

GOODLAND FORECAST AREA HOURLY WEATHER ROUNDUP
NATIONAL WEATHER SERVICE GOODLAND KS
300 PM MST FRI DEC 15 2017

...OFFICIAL OBSERVATIONS...

CITY           SKY/WX    TMP DP  RH WIND       PRES   REMARKS
GOODLAND KS    SUNNY     59   5  11 SW14G22   29.89F
HILL CITY KS   SUNNY     59  14  17 SW14      29.90F
IMPERIAL NEB   SUNNY     58  11  15 W12       29.85F
MCCOOK NEB     SUNNY     59  13  16 SW10      29.84F
AKRON CO       SUNNY     58   9  14 SW10      29.89F
BURLINGTON CO  SUNNY     58   2  10 SW17      29.92F
LIMON CO       SUNNY     59   8  13 SW8       29.92F
$$

...UNOFFICIAL OBSERVATIONS...

CITY           SKY/WX    TMP DP  RH WIND       PRES   REMARKS
COLBY KS       SUNNY     59  19  21 SW16      29.90F
LENORA KS        N/A     57  32  39 SW9         N/A
NORTON KS      SUNNY     57   3  11 SW14      29.87
SHARON SPRINGS   N/A     57   7  13 SW16        N/A
TRENTON NEB      N/A     61  32  33 W5          N/A
KIT CARSON CO    N/A     56  17  21 MISG        N/A
YUMA CO        FAIR      59   7  12 W8        29.89R
$$




USA.gov is the U.S. government's official web portal to all federal, state and local government web resources and services.